When you browse on this site, cookies collect data to enhance your experience and personalize the content and advertising you see.
Visit our Privacy Policy to learn more. By continuing to use the site, you agree to this use of cookies and data.
  • In Romania
  • List of Countries
  • For 7 days
  • Water Temperature
  • Weather Map
  • Weather Widgets
  • user-avatar
    Login

    Hourly Weather Ahwaz

    Today, 24 August, Saturday

    Time Temperature Precipitation Wind Pressure Humidity
    00:00 +33°C° 0 mm 4 mps 750 mmHg 69%
    01:00 +32°C° 0 mm 4 mps 750 mmHg 71%
    02:00 +32°C° 0 mm 4 mps 750 mmHg 73%
    03:00 +31°C° 0 mm 3 mps 750 mmHg 77%
    04:00 +31°C° 0 mm 3 mps 751 mmHg 75%
    05:00 +31°C° 0 mm 2 mps 751 mmHg 74%
    06:00 +31°C° 0 mm 1 mps 752 mmHg 73%
    07:00 +34°C° 0 mm 1 mps 752 mmHg 59%
    08:00 +38°C° 0 mm 2 mps 752 mmHg 46%
    09:00 +41°C° 0 mm 2 mps 752 mmHg 32%
    10:00 +44°C° 0 mm 3 mps 752 mmHg 25%
    11:00 +47°C° 0 mm 3 mps 751 mmHg 18%
    12:00 +51°C° 0 mm 3 mps 751 mmHg 11%
    13:00 +51°C° 0 mm 3 mps 750 mmHg 10%
    14:00 +52°C° 0 mm 3 mps 750 mmHg 9%
    15:00 +52°C° 0 mm 3 mps 749 mmHg 8%
    16:00 +51°C° 0 mm 3 mps 749 mmHg 8%
    17:00 +48°C° 0 mm 3 mps 749 mmHg 9%
    18:00 +47°C° 0 mm 3 mps 749 mmHg 9%
    19:00 +45°C° 0 mm 4 mps 749 mmHg 14%
    20:00 +42°C° 0 mm 4 mps 749 mmHg 18%
    21:00 +40°C° 0 mm 5 mps 750 mmHg 23%
    22:00 +39°C° 0 mm 5 mps 750 mmHg 28%
    23:00 +36°C° 0 mm 4 mps 750 mmHg 33%

    Tomorrow, 25 August, Sunday

    Time Temperature Precipitation Wind Pressure Humidity
    00:00 +35°C° 0 mm 4 mps 750 mmHg 39%
    01:00 +34°C° 0 mm 4 mps 750 mmHg 47%
    02:00 +33°C° 0 mm 4 mps 750 mmHg 55%
    03:00 +32°C° 0 mm 5 mps 750 mmHg 64%
    04:00 +32°C° 0 mm 4 mps 750 mmHg 63%
    05:00 +31°C° 0 mm 3 mps 750 mmHg 63%
    06:00 +31°C° 0 mm 3 mps 751 mmHg 62%
    07:00 +35°C° 0 mm 2 mps 751 mmHg 50%
    08:00 +38°C° 0 mm 2 mps 751 mmHg 38%
    09:00 +41°C° 0 mm 2 mps 751 mmHg 25%
    10:00 +45°C° 0 mm 2 mps 750 mmHg 20%
    11:00 +47°C° 0 mm 2 mps 750 mmHg 15%
    12:00 +50°C° 0 mm 2 mps 749 mmHg 10%
    13:00 +51°C° 0 mm 2 mps 749 mmHg 8%
    14:00 +53°C° 0 mm 3 mps 748 mmHg 6%
    15:00 +55°C° 0 mm 4 mps 748 mmHg 4%
    16:00 +51°C° 0 mm 3 mps 748 mmHg 5%
    17:00 +48°C° 0 mm 3 mps 748 mmHg 5%
    18:00 +46°C° 0 mm 2 mps 748 mmHg 6%
    19:00 +43°C° 0 mm 2 mps 748 mmHg 8%
    20:00 +41°C° 0 mm 2 mps 748 mmHg 10%
    21:00 +39°C° 0 mm 2 mps 749 mmHg 12%
    22:00 +38°C° 0 mm 2 mps 748 mmHg 13%
    23:00 +37°C° 0 mm 2 mps 748 mmHg 14%

    Day after tomorrow, 26 August, Monday

    Time Temperature Precipitation Wind Pressure Humidity
    00:00 +36°C° 0 mm 2 mps 748 mmHg 14%
    01:00 +35°C° 0 mm 2 mps 748 mmHg 22%
    02:00 +34°C° 0 mm 3 mps 748 mmHg 29%
    03:00 +34°C° 0 mm 4 mps 748 mmHg 36%
    04:00 +34°C° 0 mm 4 mps 748 mmHg 37%
    05:00 +34°C° 0 mm 4 mps 749 mmHg 39%
    06:00 +34°C° 0 mm 4 mps 749 mmHg 40%
    07:00 +37°C° 0 mm 4 mps 749 mmHg 32%
    08:00 +42°C° 0 mm 4 mps 749 mmHg 25%
    09:00 +45°C° 0 mm 4 mps 750 mmHg 17%
    10:00 +48°C° 0 mm 4 mps 749 mmHg 14%
    11:00 +50°C° 0 mm 4 mps 749 mmHg 11%
    12:00 +53°C° 0 mm 4 mps 749 mmHg 8%
    13:00 +53°C° 0 mm 3 mps 748 mmHg 7%
    14:00 +53°C° 0 mm 2 mps 748 mmHg 6%
    15:00 +53°C° 0 mm 2 mps 747 mmHg 5%
    16:00 +51°C° 0 mm 2 mps 747 mmHg 5%
    17:00 +49°C° 0 mm 2 mps 747 mmHg 6%
    18:00 +47°C° 0 mm 2 mps 747 mmHg 7%
    19:00 +45°C° 0 mm 2 mps 747 mmHg 9%
    20:00 +43°C° 0 mm 3 mps 748 mmHg 12%
    21:00 +40°C° 0 mm 3 mps 748 mmHg 14%
    22:00 +39°C° 0 mm 3 mps 748 mmHg 15%
    23:00 +38°C° 0 mm 3 mps 748 mmHg 15%

    27 August, Tuesday

    Time Temperature Precipitation Wind Pressure Humidity
    00:00 +37°C° 0 mm 3 mps 748 mmHg 16%
    01:00 +36°C° 0 mm 3 mps 748 mmHg 19%
    02:00 +36°C° 0 mm 3 mps 748 mmHg 22%
    03:00 +35°C° 0 mm 4 mps 748 mmHg 25%
    04:00 +35°C° 0 mm 4 mps 748 mmHg 30%
    05:00 +34°C° 0 mm 4 mps 749 mmHg 35%
    06:00 +34°C° 0 mm 4 mps 749 mmHg 40%
    07:00 +38°C° 0 mm 4 mps 749 mmHg 32%
    08:00 +43°C° 0 mm 4 mps 750 mmHg 23%
    09:00 +47°C° 0 mm 4 mps 750 mmHg 15%
    10:00 +49°C° 0 mm 4 mps 750 mmHg 13%
    11:00 +51°C° 0 mm 4 mps 749 mmHg 10%
    12:00 +53°C° 0 mm 4 mps 749 mmHg 8%
    13:00 +55°C° 0 mm 4 mps 749 mmHg 7%
    14:00 +54°C° 0 mm 3 mps 748 mmHg 6%
    15:00 +55°C° 0 mm 3 mps 747 mmHg 5%
    16:00 +53°C° 0 mm 3 mps 747 mmHg 6%
    17:00 +51°C° 0 mm 4 mps 747 mmHg 7%
    18:00 +49°C° 0 mm 4 mps 747 mmHg 8%
    19:00 +45°C° 0 mm 4 mps 748 mmHg 11%
    20:00 +43°C° 0 mm 3 mps 748 mmHg 13%
    21:00 +39°C° 0 mm 3 mps 748 mmHg 16%
    22:00 +38°C° 0 mm 3 mps 748 mmHg 16%
    23:00 +38°C° 0 mm 3 mps 748 mmHg 16%

    28 August, Wednesday

    Time Temperature Precipitation Wind Pressure Humidity
    00:00 +37°C° 0 mm 3 mps 748 mmHg 17%
    01:00 +36°C° 0 mm 3 mps 748 mmHg 18%
    02:00 +36°C° 0 mm 3 mps 748 mmHg 18%
    03:00 +36°C° 0 mm 4 mps 748 mmHg 19%
    04:00 +35°C° 0 mm 4 mps 748 mmHg 24%
    05:00 +35°C° 0 mm 4 mps 749 mmHg 29%
    06:00 +34°C° 0 mm 4 mps 749 mmHg 33%
    07:00 +38°C° 0 mm 4 mps 749 mmHg 28%
    08:00 +42°C° 0 mm 5 mps 749 mmHg 22%
    09:00 +47°C° 0 mm 5 mps 750 mmHg 16%
    10:00 +49°C° 0 mm 4 mps 749 mmHg 13%
    11:00 +51°C° 0 mm 4 mps 749 mmHg 10%
    12:00 +53°C° 0 mm 3 mps 749 mmHg 8%
    13:00 +53°C° 0 mm 3 mps 748 mmHg 7%
    14:00 +53°C° 0 mm 2 mps 748 mmHg 6%
    15:00 +53°C° 0 mm 2 mps 747 mmHg 5%
    16:00 +51°C° 0 mm 2 mps 747 mmHg 6%
    17:00 +49°C° 0 mm 2 mps 747 mmHg 6%
    18:00 +47°C° 0 mm 2 mps 747 mmHg 7%
    19:00 +45°C° 0 mm 3 mps 747 mmHg 8%
    20:00 +43°C° 0 mm 3 mps 748 mmHg 10%
    21:00 +40°C° 0 mm 3 mps 748 mmHg 12%
    22:00 +40°C° 0 mm 3 mps 748 mmHg 12%
    23:00 +39°C° 0 mm 3 mps 748 mmHg 12%

    29 August, Thursday

    Time Temperature Precipitation Wind Pressure Humidity
    00:00 +38°C° 0 mm 2 mps 748 mmHg 13%
    01:00 +37°C° 0 mm 3 mps 748 mmHg 14%
    02:00 +37°C° 0 mm 3 mps 748 mmHg 15%
    03:00 +36°C° 0 mm 3 mps 748 mmHg 16%
    04:00 +35°C° 0 mm 4 mps 749 mmHg 21%
    05:00 +35°C° 0 mm 4 mps 749 mmHg 26%
    06:00 +35°C° 0 mm 5 mps 750 mmHg 30%
    07:00 +39°C° 0 mm 5 mps 750 mmHg 25%
    08:00 +43°C° 0 mm 5 mps 750 mmHg 20%
    09:00 +47°C° 0 mm 5 mps 750 mmHg 15%
    10:00 +49°C° 0 mm 4 mps 750 mmHg 13%
    11:00 +51°C° 0 mm 3 mps 750 mmHg 10%
    12:00 +52°C° 0 mm 2 mps 749 mmHg 8%
    13:00 +52°C° 0 mm 2 mps 749 mmHg 7%
    14:00 +52°C° 0 mm 1 mps 748 mmHg 7%
    15:00 +49°C° 0 mm 0 mps 748 mmHg 6%
    16:00 +50°C° 0 mm 1 mps 748 mmHg 7%
    17:00 +48°C° 0 mm 1 mps 748 mmHg 8%
    18:00 +47°C° 0 mm 2 mps 747 mmHg 8%
    19:00 +45°C° 0 mm 2 mps 748 mmHg 10%
    20:00 +43°C° 0 mm 3 mps 748 mmHg 12%
    21:00 +40°C° 0 mm 3 mps 749 mmHg 14%
    22:00 +39°C° 0 mm 3 mps 748 mmHg 14%
    23:00 +39°C° 0 mm 3 mps 748 mmHg 15%
    Show more